CZ-6A DEB, 55902

Orbit data source: Space-Track

CZ-6A DEB, 55902 is space debris in SSO originally from a launch on Fri, 11 Nov 2022 UTC launched from the Taiyaun Space Center, China (TSC). Debris objects in space refer to the collection of defunct objects orbiting the Earth. Examples of debris include non-operational satellites, rocket bodies, and fragments generated from explosions, collisions, or faulty payload assembly.

Loading next visibility...
Identifier
55902, 2022-151ABA
Orbit
SSO
Country
Flag of CNCN / PRC
Related business
Manufacturer
SAST
Mission
Spacecraft
Bus & Motor
Unknown
Mass
Unknown
Launch date (UTC)
2022-11-11 (4 years ago)
Launch vehicle
Unknown
Launch site
Taiyaun Space Center, China (TSC)
Object type
Payload
Rocket body
Debris
Shape & HBR
Unknown shape, 0.1 m
Radar Cross Section
Small (<0.1 m²)

Expand to show TLE details & history
Last TLE update: 1 day ago

TLE from 1 day ago
0 CZ-6A DEB
1 55902U 22151ABA 26235.64946233  .00022876  00000-0  25868-2 0  9993
2 55902  98.5770 302.0056 0038361  45.1923 315.2398 14.85935502199462
Epoch: 2026-08-23T15:35Z
TLE epoch observation values (Epoch: 2026-08-23T15:35:13.545Z)
Latitude
-0°
Longitude
96.25668°
Altitude
594.67 km
Speed
7.573 km/s
True Right ascension
20h 08m 01s
True Declination
0° 00' 00"
Sunlit
Object was in full shadow at epoch
Visualization orbit readout
Latitude
Unknown
Longitude
Unknown
Altitude
Unknown
Speed
Unknown
Apparent Right ascension
Unknown
Apparent Declination
Unknown
Sunlit
N/A
Visualization observer readout
Local Sidereal Time
10:51:04
Azimuth
Unknown
Elevation
Unknown
Doppler factor
Unknown
Orbital elements
Apogee altitude
634.514 km
Perigee altitude
580.917 km
Semi-major axis
6,985.853 km
Eccentricity
0.00384
Inclination
98.577°
RAAN
302.0056°
Arg. of periapsis
45.1923°
True anomaly
314.92921°
Mean anomaly
315.2398°
Eccentric anomaly
315.08461°
Mean motion
3.71718 °/min
Orbital period
96.85 mins
BSTAR
0.0025868
Loading maneuver chart data...
Computing Atmospheric mass density...
Loading historical data...
Loading historical data...
Loading historical data...
Loading historical data...
Loading historical data...
Loading historical data...
Loading historical data...

Documentation

Showing up to 5 results
|